When you browse on this site, cookies collect data to enhance your experience and personalize the content and advertising you see.
Visit our Privacy Policy to learn more. By continuing to use the site, you agree to this use of cookies and data.
  • In Hungary
  • List of Countries
  • For 7 days
  • Water Temperature
  • Weather Map
  • News
  • Weather Widgets
  • user-avatar
    Login

    Hourly Weather Valuyskiy

    Today, 19 October, Saturday

    Time Temperature Precipitation Wind Pressure Humidity
    00:00 +13°C° 0 mm 1 mps 762 mmHg 82%
    01:00 +13°C° 0 mm 1 mps 762 mmHg 82%
    02:00 +13°C° 0 mm 1 mps 762 mmHg 83%
    03:00 +11°C° 0 mm 0 mps 762 mmHg 85%
    04:00 +10°C° 0 mm 0 mps 762 mmHg 85%
    05:00 +10°C° 0 mm 0 mps 763 mmHg 85%
    06:00 +11°C° 0 mm 1 mps 763 mmHg 86%
    07:00 +12°C° 0 mm 1 mps 763 mmHg 79%
    08:00 +14°C° 0 mm 1 mps 763 mmHg 73%
    09:00 +15°C° 0 mm 1 mps 764 mmHg 67%
    10:00 +18°C° 0 mm 1 mps 764 mmHg 61%
    11:00 +20°C° 0 mm 1 mps 764 mmHg 55%
    12:00 +20°C° 0 mm 2 mps 764 mmHg 49%
    13:00 +22°C° 0 mm 1 mps 763 mmHg 46%
    14:00 +22°C° 0 mm 1 mps 763 mmHg 44%
    15:00 +23°C° 0 mm 1 mps 763 mmHg 41%
    16:00 +20°C° 0 mm 2 mps 763 mmHg 47%
    17:00 +19°C° 0 mm 2 mps 763 mmHg 52%
    18:00 +17°C° 0 mm 2 mps 764 mmHg 58%
    19:00 +16°C° 0 mm 2 mps 764 mmHg 61%
    20:00 +16°C° 0 mm 2 mps 764 mmHg 64%
    21:00 +14°C° 0 mm 3 mps 764 mmHg 67%
    22:00 +14°C° 0 mm 3 mps 765 mmHg 68%
    23:00 +14°C° 0 mm 2 mps 765 mmHg 68%

    Tomorrow, 20 October, Sunday

    Time Temperature Precipitation Wind Pressure Humidity
    00:00 +14°C° 0 mm 2 mps 765 mmHg 69%
    01:00 +14°C° 0 mm 2 mps 765 mmHg 69%
    02:00 +13°C° 0 mm 2 mps 765 mmHg 70%
    03:00 +13°C° 0 mm 2 mps 765 mmHg 70%
    04:00 +13°C° 0 mm 2 mps 765 mmHg 72%
    05:00 +12°C° 0 mm 2 mps 766 mmHg 73%
    06:00 +11°C° 0 mm 3 mps 766 mmHg 74%
    07:00 +13°C° 0 mm 3 mps 766 mmHg 69%
    08:00 +14°C° 0 mm 3 mps 766 mmHg 64%
    09:00 +17°C° 0 mm 3 mps 767 mmHg 60%
    10:00 +19°C° 0 mm 4 mps 767 mmHg 54%
    11:00 +20°C° 0 mm 4 mps 766 mmHg 49%
    12:00 +22°C° 0 mm 4 mps 766 mmHg 44%
    13:00 +23°C° 0 mm 4 mps 766 mmHg 43%
    14:00 +23°C° 0 mm 4 mps 766 mmHg 42%
    15:00 +23°C° 0 mm 4 mps 766 mmHg 41%
    16:00 +21°C° 0 mm 4 mps 766 mmHg 46%
    17:00 +20°C° 0 mm 4 mps 766 mmHg 51%
    18:00 +18°C° 0 mm 3 mps 766 mmHg 56%
    19:00 +17°C° 0 mm 4 mps 767 mmHg 58%
    20:00 +15°C° 0 mm 4 mps 767 mmHg 60%
    21:00 +15°C° 0 mm 4 mps 767 mmHg 62%
    22:00 +14°C° 0 mm 4 mps 767 mmHg 65%
    23:00 +14°C° 0 mm 4 mps 767 mmHg 68%

    Day after tomorrow, 21 October, Monday

    Time Temperature Precipitation Wind Pressure Humidity
    00:00 +13°C° 0 mm 4 mps 767 mmHg 71%
    01:00 +13°C° 0 mm 4 mps 767 mmHg 73%
    02:00 +12°C° 0 mm 4 mps 767 mmHg 75%
    03:00 +12°C° 0 mm 4 mps 767 mmHg 77%
    04:00 +12°C° 0 mm 4 mps 768 mmHg 78%
    05:00 +11°C° 0 mm 3 mps 768 mmHg 78%
    06:00 +11°C° 0 mm 3 mps 768 mmHg 79%
    07:00 +12°C° 0 mm 4 mps 768 mmHg 73%
    08:00 +14°C° 0 mm 4 mps 768 mmHg 67%
    09:00 +15°C° 0 mm 5 mps 768 mmHg 62%
    10:00 +16°C° 0 mm 5 mps 768 mmHg 57%
    11:00 +19°C° 0 mm 5 mps 768 mmHg 52%
    12:00 +20°C° 0 mm 5 mps 768 mmHg 47%
    13:00 +21°C° 0 mm 5 mps 768 mmHg 46%
    14:00 +21°C° 0 mm 5 mps 768 mmHg 45%
    15:00 +21°C° 0 mm 5 mps 767 mmHg 44%
    16:00 +20°C° 0 mm 4 mps 767 mmHg 49%
    17:00 +18°C° 0 mm 4 mps 767 mmHg 54%
    18:00 +16°C° 0 mm 3 mps 767 mmHg 59%
    19:00 +16°C° 0 mm 3 mps 767 mmHg 60%
    20:00 +14°C° 0 mm 3 mps 767 mmHg 62%
    21:00 +13°C° 0 mm 3 mps 767 mmHg 63%
    22:00 +13°C° 0 mm 3 mps 767 mmHg 64%
    23:00 +12°C° 0 mm 3 mps 767 mmHg 66%

    22 October, Tuesday

    Time Temperature Precipitation Wind Pressure Humidity
    00:00 +12°C° 0 mm 3 mps 767 mmHg 67%
    01:00 +11°C° 0 mm 3 mps 767 mmHg 69%
    02:00 +12°C° 0 mm 2 mps 767 mmHg 70%
    03:00 +12°C° 0 mm 2 mps 767 mmHg 71%
    04:00 +10°C° 0 mm 2 mps 767 mmHg 73%
    05:00 +10°C° 0 mm 2 mps 767 mmHg 74%
    06:00 +10°C° 0 mm 2 mps 768 mmHg 76%
    07:00 +12°C° 0 mm 2 mps 768 mmHg 72%
    08:00 +14°C° 0 mm 2 mps 768 mmHg 67%
    09:00 +14°C° 0 mm 3 mps 768 mmHg 62%
    10:00 +17°C° 0 mm 3 mps 768 mmHg 56%
    11:00 +18°C° 0 mm 3 mps 768 mmHg 50%
    12:00 +20°C° 0 mm 3 mps 768 mmHg 44%
    13:00 +20°C° 0 mm 3 mps 767 mmHg 43%
    14:00 +21°C° 0 mm 3 mps 767 mmHg 41%
    15:00 +21°C° 0 mm 3 mps 767 mmHg 39%
    16:00 +19°C° 0 mm 3 mps 767 mmHg 44%
    17:00 +18°C° 0 mm 2 mps 767 mmHg 49%
    18:00 +16°C° 0 mm 2 mps 767 mmHg 54%
    19:00 +15°C° 0 mm 2 mps 767 mmHg 56%
    20:00 +15°C° 0 mm 2 mps 767 mmHg 58%
    21:00 +14°C° 0 mm 2 mps 767 mmHg 60%
    22:00 +14°C° 0 mm 2 mps 767 mmHg 62%
    23:00 +13°C° 0 mm 2 mps 767 mmHg 63%

    23 October, Wednesday

    Time Temperature Precipitation Wind Pressure Humidity
    00:00 +13°C° 0 mm 2 mps 767 mmHg 64%
    01:00 +13°C° 0 mm 1 mps 767 mmHg 65%
    02:00 +12°C° 0 mm 1 mps 767 mmHg 66%
    03:00 +12°C° 0 mm 1 mps 767 mmHg 66%
    04:00 +12°C° 0 mm 1 mps 767 mmHg 68%
    05:00 +11°C° 0 mm 1 mps 767 mmHg 69%
    06:00 +11°C° 0 mm 1 mps 767 mmHg 71%
    07:00 +12°C° 0 mm 1 mps 767 mmHg 66%
    08:00 +14°C° 0 mm 1 mps 767 mmHg 61%
    09:00 +15°C° 0 mm 2 mps 767 mmHg 57%
    10:00 +17°C° 0 mm 2 mps 767 mmHg 51%
    11:00 +18°C° 0 mm 2 mps 767 mmHg 46%
    12:00 +20°C° 0 mm 2 mps 766 mmHg 40%
    13:00 +20°C° 0 mm 2 mps 766 mmHg 39%
    14:00 +21°C° 0 mm 2 mps 766 mmHg 38%
    15:00 +21°C° 0 mm 2 mps 766 mmHg 36%
    16:00 +19°C° 0 mm 2 mps 766 mmHg 41%
    17:00 +18°C° 0 mm 2 mps 765 mmHg 46%
    18:00 +16°C° 0 mm 2 mps 765 mmHg 51%
    19:00 +15°C° 0 mm 2 mps 765 mmHg 53%
    20:00 +15°C° 0 mm 2 mps 766 mmHg 55%
    21:00 +14°C° 0 mm 2 mps 766 mmHg 57%
    22:00 +14°C° 0 mm 2 mps 766 mmHg 57%
    23:00 +13°C° 0 mm 2 mps 765 mmHg 58%

    24 October, Thursday

    Time Temperature Precipitation Wind Pressure Humidity
    00:00 +13°C° 0 mm 2 mps 765 mmHg 59%
    01:00 +13°C° 0 mm 1 mps 765 mmHg 60%
    02:00 +13°C° 0 mm 1 mps 765 mmHg 61%
    03:00 +12°C° 0 mm 1 mps 765 mmHg 62%
    04:00 +12°C° 0 mm 1 mps 765 mmHg 63%
    05:00 +12°C° 0 mm 1 mps 765 mmHg 64%
    06:00 +12°C° 0 mm 2 mps 765 mmHg 65%
    07:00 +13°C° 0 mm 2 mps 765 mmHg 61%
    08:00 +14°C° 0 mm 2 mps 765 mmHg 58%
    09:00 +15°C° 0 mm 2 mps 765 mmHg 54%
    10:00 +17°C° 0 mm 2 mps 765 mmHg 49%
    11:00 +18°C° 0 mm 2 mps 765 mmHg 43%
    12:00 +20°C° 0 mm 2 mps 765 mmHg 37%
    13:00 +20°C° 0 mm 2 mps 765 mmHg 36%
    14:00 +21°C° 0 mm 2 mps 764 mmHg 34%
    15:00 +21°C° 0 mm 2 mps 764 mmHg 32%
    16:00 +20°C° 0 mm 2 mps 764 mmHg 36%
    17:00 +18°C° 0 mm 2 mps 764 mmHg 41%
    18:00 +16°C° 0 mm 2 mps 764 mmHg 45%
    19:00 +15°C° 0 mm 2 mps 764 mmHg 47%
    20:00 +15°C° 0 mm 2 mps 764 mmHg 49%
    21:00 +14°C° 0 mm 1 mps 764 mmHg 50%
    22:00 +14°C° 0 mm 1 mps 764 mmHg 52%
    23:00 +13°C° 0 mm 1 mps 764 mmHg 54%
    Show more